Hourly Data Report for September 08, 2016

SHEARWATER RCS
NOVA SCOTIA

44°37'47.000" N
63°30'48.000" W
24.00 m
8205092
71264
AAW

Download Data

Hourly Data (September 2016)
Hourly Data Report for September 8, 2016
TIME Temp Definition
°C
Dew Point Definition
°C
Rel Hum Definition
%
Wind Dir Definition
10's deg

Wind Spd Definition
km/h
Visibility Definition
km
Stn Press Definition
kPa
Hmdx Definition


Wind Chill Definition


Weather Definition


00:00 19.4 18.3 93 21 5   101.57     LegendNANA
01:00 19.4 18.3 94 19 7   101.57     LegendNANA
02:00 19.5 18.5 94 24 4   101.53     LegendNANA
03:00 19.9 19.1 95 24 6   101.51     LegendNANA
04:00 20.0 19.2 95 20 7   101.51 27   LegendNANA
05:00 19.4 18.6 95 16 8   101.49     LegendNANA
06:00 19.2 18.5 96 16 8   101.49     LegendNANA
07:00 19.3 18.6 96 16 5   101.49     LegendNANA
08:00 20.2 19.4 96 17 11   101.43 27   LegendNANA
09:00 21.3 20.5 95 22 13   101.40 29   LegendNANA
10:00 22.6 20.8 89 23 14   101.43 31   LegendNANA
11:00 22.9 20.4 86 23 13   101.38 31   LegendNANA
12:00 23.5 20.6 84 21 14   101.32 32   LegendNANA
13:00 25.4 20.8 76 21 18   101.30 34   LegendNANA
14:00 24.5 20.5 78 20 16   101.27 32   LegendNANA
15:00 24.6 20.2 76 21 20   101.25 32   LegendNANA
16:00 24.5 20.4 78 21 19   101.22 32   LegendNANA
17:00 23.1 19.9 83 19 15   101.20 31   LegendNANA
18:00 22.1 19.6 86 18 13   101.19 29   LegendNANA
19:00 21.5 19.8 90 20 10   101.18 29   LegendNANA
20:00 20.3 18.9 92 17 14   101.20 27   LegendNANA
21:00 20.4 19.1 92 17 6   101.23 27   LegendNANA
22:00 20.4 19.1 92 17 15   101.15 27   LegendNANA
23:00 20.1 18.9 93 17 13   101.09 27   LegendNANA

Notes on Data Quality.

Legend

  • E = Estimated
  • M = Missing
  • NA = Not Available*
  • [empty] = Indicates an unobserved value
Date modified: